Terminal Aerodrome Forecast
Issued by NWS

Home | Current Version | Previous Version | Graphics & Text | Print | Product List | Glossary On
Versions: 1 2 3 4 5 6 7 8 9 10 11 12 13
000
FTUS43 KFGF 222331
TAFBJI
TAF
KBJI 222331Z 2300/2324 22004KT P6SM SKC
     FM231500 18007G14KT P6SM SCT250
     FM232000 19008G16KT P6SM SCT060 BKN250=

USA.gov is the U.S. government's official web portal to all federal, state and local government web resources and services.